Home   Weather   Hof (Saale)   Past weeks

Flag for Germany Past Weather in Hof (Saale), Bavaria, Germany — Yesterday and Last 2 Weeks

Now
10 °F

Passing clouds.


Feels Like: 10 °F
Forecast: 4 / 20 °F
Wind: No wind

Location: Grafenwoehr

Current Time: Jan 17, 2017 at 2:04:01 am

Latest Report: Jan 17, 2017 at 12:58 am


Visibility: N/A

Pressure: 30.33 "Hg

Humidity: 92%

Dew Point: 9 °F

Location of Hof (Saale)Location

Past Weather in Hof (Saale) — Graph

°F

Hof (Saale) Temperature Yesterday

Maximum temperature yesterday: 28 °F (at 1:23 pm)
Minimum temperature yesterday: 12 °F (at 11:58 pm)
Average temperature yesterday: 24 °F

High & Low Weather Summary for the Past Weeks

 TemperatureHumidityPressure
High39 °F (Jan 12, 1:20 pm)100% (Jan 2, 5:27 am)30.83 "Hg (Jan 2, 5:27 am)
Low-8 °F (Jan 7, 2:58 am)64% (Jan 5, 2:16 am)29.25 "Hg (Jan 13, 4:39 am)
Average26 °F86%30.04 "Hg
* Reported Jan 2 12:36 am — Jan 17 12:26 am, Hof (Saale), Weather by CustomWeather, © 2017

Note: Actual official high and low records may vary slightly from our data, if they occured in-between our weather recording intervals... More about our weather records

Advertising

Hof (Saale) Weather History for the Previous 24 Hours

Scroll right to see more
 ConditionsComfort  
Time TempWeatherWind HumidityBarometerVisibility
12:26 am
Tue, Jan 17
12 °FPassing clouds.No wind85%30.32 "HgN/A
11:58 pm
Mon, Jan 16
12 °FPassing clouds.No wind92%30.32 "HgN/A
10:58 pm14 °FClear.No wind92%30.42 "HgN/A
9:58 pm19 °FClear.No wind86%30.41 "HgN/A
8:58 pm19 °FClear.3 mph86%30.39 "HgN/A
8:27 pm19 °FPassing clouds.5 mph93%30.27 "HgN/A
7:58 pm21 °FPassing clouds.No wind90%30.37 "HgN/A
6:58 pm24 °FClear.3 mph86%30.33 "HgN/A
5:58 pm25 °FOvercast.3 mph86%30.31 "HgN/A
5:29 pm25 °FOvercast.No wind86%30.20 "HgN/A
4:58 pm27 °FOvercast.No wind86%30.28 "HgN/A
3:58 pm28 °FOvercast.3 mph78%30.27 "HgN/A
3:33 pm28 °FBroken clouds.5 mph74%30.17 "HgN/A
2:58 pm28 °FBroken clouds.3 mph79%30.25 "HgN/A
2:34 pm27 °FCloudy.No wind86%30.16 "HgN/A
2:01 pm28 °FLight snow. Mostly cloudy.5 mph80%30.15 "HgN/A
1:23 pm28 °FMostly cloudy.No wind80%30.16 "HgN/A
12:58 pm28 °FMostly cloudy.5 mph80%30.24 "HgN/A
12:34 pm27 °FLight snow. More clouds than sun.3 mph86%30.15 "HgN/A
11:58 am27 °FLight snow. Ice fog.5 mph86%30.24 "Hg3 mi
11:36 am27 °FLight snow. Ice fog.3 mph86%30.15 "Hg4 mi
10:58 am26 °FLight snow. Ice fog.7 mph86%30.24 "Hg6 mi
10:19 am27 °FLight snow. Ice fog.5 mph86%30.15 "Hg3 mi
9:58 am25 °FLight snow. Cloudy.5 mph93%30.24 "HgN/A
8:58 am25 °FMostly cloudy.3 mph93%30.22 "HgN/A
8:33 am25 °FLight snow. Mostly cloudy.No wind93%30.12 "HgN/A
8:09 am23 °FLight snow. Ice fog.No wind100%30.12 "Hg3 mi
8:00 am23 °FLight snow. Ice fog.No wind93%30.11 "Hg2 mi
7:29 am25 °FLight snow. Ice fog.No wind93%30.11 "Hg5 mi
7:06 am25 °FLight snow. Ice fog.No wind93%30.10 "Hg5 mi
5:58 am25 °FPartly cloudy.No wind93%30.18 "HgN/A
5:38 am25 °FMostly cloudy.No wind93%30.09 "HgN/A
5:23 am25 °FMostly cloudy.No wind93%30.08 "HgN/A
4:18 am25 °FLow clouds.7 mph93%30.07 "HgN/A
3:26 am27 °FLow clouds.5 mph86%30.07 "HgN/A
2:58 am25 °FLight snow. Low clouds.5 mph92%30.16 "HgN/A
2:22 am25 °FMostly cloudy.5 mph93%30.07 "HgN/A
2:01 am25 °FLight snow. Ice fog.6 mph93%30.06 "Hg5 mi
Weather by CustomWeather, © 2017

See weather overviewHow to use our weather pages